This is the latest recevied weather packets stored in our database for station/object KJ7HSW. If no packets are shown the sender has not sent any weather packets the latest 10 day(s).
| Time | Temp. | Humidity | Pressure | Rain* | Wind** | Luminosity | Snow |
|---|---|---|---|---|---|---|---|
| 1777960680 | 15° C | 79% | 1010.2 hPa | 0 mm | - | 0 W/m² | - |
| 1777960376 | 15° C | 79% | 1010.4 hPa | 0 mm | - | 0 W/m² | - |
| 1777960074 | 15° C | 78% | 1010.2 hPa | 0 mm | - | 0 W/m² | - |
| 1777959771 | 15° C | 77% | 1010.3 hPa | 0 mm | - | 0 W/m² | - |
| 1777959469 | 15.56° C | 77% | 1010.3 hPa | 0 mm | - | 0 W/m² | - |
| 1777959166 | 15.56° C | 75% | 1010.1 hPa | 0 mm | - | 0 W/m² | - |
| 1777958863 | 15.56° C | 74% | 1010.2 hPa | 0 mm | - | 0 W/m² | - |
| 1777958560 | 16.11° C | 73% | 1010.1 hPa | 0 mm | - | 0 W/m² | - |
| 1777958257 | 16.11° C | 73% | 1010 hPa | 0 mm | - | 0 W/m² | - |
| 1777957955 | 16.11° C | 72% | 1010 hPa | 0 mm | - | 0 W/m² | - |
| 1777957652 | 16.67° C | 71% | 1010 hPa | 0 mm | - | 0 W/m² | - |
| 1777957351 | 16.67° C | 70% | 1010.1 hPa | 0 mm | - | 0 W/m² | - |
| 1777957046 | 17.22° C | 68% | 1009.8 hPa | 0 mm | - | 0 W/m² | - |
| 1777956744 | 17.22° C | 68% | 1009.9 hPa | 0 mm | - | 0 W/m² | - |
| 1777956441 | 16.67° C | 69% | 1009.8 hPa | 0 mm | - | 0 W/m² | - |
| 1777956137 | 16.67° C | 70% | 1009.7 hPa | 0 mm | - | 0 W/m² | - |
| 1777955834 | 17.22° C | 70% | 1009.7 hPa | 0 mm | - | 0 W/m² | - |
| 1777955530 | 17.22° C | 68% | 1009.6 hPa | 0 mm | - | 0 W/m² | - |
| 1777955226 | 17.22° C | 68% | 1009.6 hPa | 0 mm | - | 0 W/m² | - |
| 1777954924 | 17.78° C | 72% | 1009.3 hPa | 0 mm | - | 0 W/m² | - |
| 1777954620 | 17.78° C | 69% | 1009.4 hPa | 0 mm | - | 0 W/m² | - |
| 1777954318 | 17.78° C | 68% | 1009.2 hPa | 0 mm | - | 0 W/m² | - |
| 1777954015 | 17.78° C | 68% | 1009.2 hPa | 0 mm | - | 0 W/m² | - |
| 1777953712 | 17.78° C | 70% | 1009.2 hPa | 0 mm | - | 0 W/m² | - |
| 1777953408 | 17.78° C | 70% | 1009.2 hPa | 0 mm | - | 0 W/m² | - |
* Rain latest hour (hover to see other rain measurements)
** Current wind speed in m/s (hover to see current wind gust speed)